CEB316 RPLC-RPSP

Flight info

Callsign CEB316
Flight time 1h 5m
Altitude 33000
Route OLIVA2E OLIVA W16 MIA B462 IPATA W25 BATAY BATAY1P
Aircraft A20N/M-SDE2E3FGHIRWXY/LB1

Departure

Time 2026-04-25 02:04
Airport Clark International Airport / Clark Air Base (RPLC)

Arrival

Time 2026-04-25 03:10
Airport Bohol-Panglao International Airport (RPSP)
Time Latitude Longitude Altitude Speed Heading
2026-04-25 01:37 15.19558 120.56026 453 ft 0 kts 325°
2026-04-25 01:53 15.19550 120.56031 450 ft 4 kts 325°
2026-04-25 01:53 15.19528 120.56047 451 ft 4 kts 325°
2026-04-25 01:54 15.19508 120.56064 453 ft 4 kts 299°
2026-04-25 01:54 15.19503 120.56080 452 ft 4 kts 210°
2026-04-25 01:54 15.19499 120.56079 452 ft 4 kts 199°
2026-04-25 01:54 15.19474 120.56070 452 ft 2 kts 199°
2026-04-25 01:55 15.19472 120.56069 453 ft 0 kts 199°
2026-04-25 01:59 15.19471 120.56069 453 ft 1 kts 199°
2026-04-25 01:59 15.19329 120.56018 453 ft 32 kts 199°
2026-04-25 01:59 15.19141 120.55968 453 ft 22 kts 150°
2026-04-25 02:00 15.19082 120.56009 453 ft 10 kts 180°
2026-04-25 02:00 15.18961 120.55964 453 ft 21 kts 202°
2026-04-25 02:00 15.18821 120.55908 453 ft 22 kts 201°
2026-04-25 02:00 15.18675 120.55846 453 ft 24 kts 199°
2026-04-25 02:01 15.18514 120.55782 453 ft 26 kts 202°
2026-04-25 02:01 15.18335 120.55712 453 ft 29 kts 200°
2026-04-25 02:01 15.18139 120.55636 453 ft 31 kts 201°
2026-04-25 02:01 15.17928 120.55552 453 ft 34 kts 201°
2026-04-25 02:02 15.17704 120.55465 453 ft 30 kts 197°
2026-04-25 02:02 15.17590 120.55518 453 ft 16 kts 124°
2026-04-25 02:02 15.17533 120.55620 453 ft 17 kts 117°
2026-04-25 02:02 15.17474 120.55736 453 ft 19 kts 114°
2026-04-25 02:03 15.17527 120.55822 453 ft 13 kts 17°
2026-04-25 02:03 15.17568 120.55835 453 ft 0 kts 24°
2026-04-25 02:03 15.17571 120.55836 453 ft 4 kts 19°
2026-04-25 02:03 15.17783 120.55923 452 ft 71 kts 21°
2026-04-25 02:04 15.18481 120.56198 456 ft 141 kts 21°
2026-04-25 02:04 15.19478 120.56591 889 ft 156 kts 21°
2026-04-25 02:04 15.20535 120.57006 1440 ft 165 kts 21°
2026-04-25 02:04 15.21703 120.57470 1933 ft 201 kts 22°
2026-04-25 02:05 15.23151 120.58049 2386 ft 242 kts 22°
2026-04-25 02:05 15.24785 120.58699 3179 ft 259 kts 22°
2026-04-25 02:05 15.26298 120.59655 4162 ft 262 kts 49°
2026-04-25 02:05 15.27075 120.61337 5209 ft 264 kts 82°
2026-04-25 02:06 15.26916 120.63230 6230 ft 268 kts 108°
2026-04-25 02:06 15.25934 120.64880 7188 ft 275 kts 135°
2026-04-25 02:06 15.24280 120.65880 8145 ft 282 kts 164°
2026-04-25 02:06 15.22326 120.65923 9156 ft 287 kts 192°
2026-04-25 02:07 15.20406 120.65308 10178 ft 290 kts 200°
2026-04-25 02:07 15.18454 120.64547 10735 ft 311 kts 201°
2026-04-25 02:07 15.16357 120.63722 11191 ft 331 kts 201°
2026-04-25 02:07 15.14207 120.62893 11907 ft 339 kts 200°
2026-04-25 02:08 15.11917 120.62232 12708 ft 345 kts 187°
2026-04-25 02:08 15.09526 120.62474 13552 ft 351 kts 162°
2026-04-25 02:08 15.07330 120.63622 14294 ft 357 kts 149°
2026-04-25 02:08 15.05239 120.65050 14984 ft 364 kts 147°
2026-04-25 02:09 15.03128 120.66544 15686 ft 369 kts 147°
2026-04-25 02:09 15.00987 120.68047 16396 ft 375 kts 147°
2026-04-25 02:09 14.98803 120.69562 17094 ft 380 kts 148°
2026-04-25 02:09 14.96617 120.71066 17769 ft 386 kts 148°
2026-04-25 02:10 14.94319 120.72534 18397 ft 390 kts 152°
2026-04-25 02:10 14.91935 120.73876 18962 ft 393 kts 154°
2026-04-25 02:10 14.89502 120.75204 19571 ft 395 kts 154°
2026-04-25 02:10 14.87062 120.76530 20183 ft 397 kts 154°
2026-04-25 02:11 14.84607 120.77864 20796 ft 400 kts 154°
2026-04-25 02:11 14.82140 120.79206 21429 ft 403 kts 154°
2026-04-25 02:11 14.79653 120.80559 22068 ft 405 kts 155°
2026-04-25 02:11 14.77146 120.81923 22725 ft 408 kts 155°
2026-04-25 02:12 14.74622 120.83297 23378 ft 411 kts 155°
2026-04-25 02:12 14.72118 120.84659 23963 ft 414 kts 155°
2026-04-25 02:12 14.69559 120.86051 24464 ft 418 kts 155°
2026-04-25 02:12 14.66969 120.87460 24958 ft 423 kts 155°
2026-04-25 02:13 14.64351 120.88883 25463 ft 427 kts 155°
2026-04-25 02:13 14.61712 120.90318 25960 ft 431 kts 155°
2026-04-25 02:13 14.59043 120.91768 26442 ft 435 kts 155°
2026-04-25 02:13 14.56354 120.93230 26926 ft 439 kts 155°
2026-04-25 02:14 14.53642 120.94703 27384 ft 443 kts 155°
2026-04-25 02:14 14.50905 120.96189 27837 ft 446 kts 155°
2026-04-25 02:14 14.48147 120.97686 28299 ft 450 kts 155°
2026-04-25 02:14 14.45407 120.99173 28741 ft 453 kts 155°
2026-04-25 02:15 14.42604 121.00694 29182 ft 457 kts 155°
2026-04-25 02:15 14.39778 121.02227 29587 ft 461 kts 155°
2026-04-25 02:15 14.36930 121.03771 30004 ft 465 kts 155°
2026-04-25 02:15 14.34061 121.05327 30377 ft 467 kts 155°
2026-04-25 02:16 14.31191 121.06882 30937 ft 465 kts 155°
2026-04-25 02:16 14.28340 121.08429 31565 ft 461 kts 155°
2026-04-25 02:16 14.25510 121.09963 32181 ft 457 kts 155°
2026-04-25 02:16 14.22738 121.11464 32712 ft 456 kts 155°
2026-04-25 02:17 14.19925 121.12986 32960 ft 456 kts 155°
2026-04-25 02:17 14.15232 121.15526 33000 ft 455 kts 155°
2026-04-25 02:18 14.10349 121.18167 32998 ft 455 kts 155°
2026-04-25 02:18 14.04747 121.21195 32996 ft 454 kts 156°
2026-04-25 02:19 13.99184 121.24201 32996 ft 454 kts 155°
2026-04-25 02:19 13.93591 121.27221 32997 ft 453 kts 155°
2026-04-25 02:20 13.88004 121.30236 32998 ft 453 kts 156°
2026-04-25 02:20 13.82420 121.33249 32999 ft 453 kts 156°
2026-04-25 02:21 13.76833 121.36260 33000 ft 453 kts 156°
2026-04-25 02:21 13.71283 121.39250 33000 ft 453 kts 155°
2026-04-25 02:22 13.65700 121.42258 33000 ft 453 kts 155°
2026-04-25 02:22 13.60109 121.45267 32999 ft 453 kts 155°
2026-04-25 02:23 13.54524 121.48271 33000 ft 453 kts 155°
2026-04-25 02:23 13.48939 121.51275 32999 ft 453 kts 155°
2026-04-25 02:24 13.43391 121.54256 32996 ft 453 kts 155°
2026-04-25 02:24 13.37811 121.57253 32996 ft 452 kts 155°
2026-04-25 02:25 13.32248 121.60240 32992 ft 451 kts 155°
2026-04-25 02:25 13.26683 121.63226 32993 ft 451 kts 155°
2026-04-25 02:26 13.21118 121.66210 32993 ft 451 kts 155°
2026-04-25 02:26 13.15597 121.69169 32993 ft 451 kts 155°
2026-04-25 02:27 13.10033 121.72149 32993 ft 451 kts 155°
2026-04-25 02:27 13.04476 121.75125 32991 ft 451 kts 155°
2026-04-25 02:28 12.98918 121.78100 32991 ft 451 kts 155°
2026-04-25 02:28 12.93387 121.81058 32990 ft 451 kts 155°
2026-04-25 02:29 12.87836 121.84026 32988 ft 450 kts 155°
2026-04-25 02:29 12.82280 121.86995 32992 ft 450 kts 155°
2026-04-25 02:30 12.76727 121.89960 32993 ft 450 kts 155°
2026-04-25 02:30 12.71177 121.92923 32989 ft 449 kts 155°
2026-04-25 02:31 12.65681 121.95856 32986 ft 448 kts 155°
2026-04-25 02:31 12.60166 121.98797 32981 ft 448 kts 155°
2026-04-25 02:32 12.54630 122.01748 32984 ft 448 kts 155°
2026-04-25 02:32 12.49099 122.04695 32982 ft 448 kts 155°
2026-04-25 02:33 12.43606 122.07619 32978 ft 448 kts 155°
2026-04-25 02:33 12.38087 122.10557 32976 ft 446 kts 154°
2026-04-25 02:34 12.32581 122.13487 32976 ft 446 kts 154°
2026-04-25 02:34 12.27088 122.16407 32976 ft 446 kts 154°
2026-04-25 02:35 12.21620 122.19314 32976 ft 446 kts 154°
2026-04-25 02:35 12.16126 122.22232 32976 ft 445 kts 154°
2026-04-25 02:36 12.10619 122.25157 32982 ft 445 kts 154°
2026-04-25 02:36 12.05121 122.28075 32975 ft 445 kts 154°
2026-04-25 02:37 11.99624 122.30991 32979 ft 445 kts 154°
2026-04-25 02:37 11.94175 122.33881 32987 ft 445 kts 154°
2026-04-25 02:38 11.88674 122.36797 32992 ft 445 kts 154°
2026-04-25 02:38 11.83175 122.39710 32988 ft 445 kts 154°
2026-04-25 02:39 11.77670 122.42625 32991 ft 445 kts 154°
2026-04-25 02:39 11.72213 122.45513 32986 ft 445 kts 154°
2026-04-25 02:40 11.66714 122.48422 32989 ft 445 kts 154°
2026-04-25 02:40 11.61207 122.51335 32990 ft 445 kts 154°
2026-04-25 02:41 11.55708 122.54242 32988 ft 445 kts 154°
2026-04-25 02:41 11.50244 122.57128 32979 ft 445 kts 154°
2026-04-25 02:42 11.44747 122.60031 32979 ft 445 kts 154°
2026-04-25 02:42 11.39248 122.62934 32974 ft 444 kts 153°
2026-04-25 02:43 11.33777 122.65821 32978 ft 440 kts 153°
2026-04-25 02:43 11.28333 122.68693 32969 ft 441 kts 153°
2026-04-25 02:44 11.22913 122.71550 32978 ft 443 kts 153°
2026-04-25 02:44 11.17452 122.74428 32963 ft 440 kts 153°
2026-04-25 02:45 11.12008 122.77296 32967 ft 441 kts 153°
2026-04-25 02:45 11.06575 122.80155 32964 ft 438 kts 153°
2026-04-25 02:46 11.01218 122.82976 32644 ft 437 kts 153°
2026-04-25 02:46 10.98500 122.84405 32400 ft 441 kts 153°
2026-04-25 02:46 10.95763 122.85846 32156 ft 444 kts 153°
2026-04-25 02:46 10.93016 122.87291 31912 ft 444 kts 154°
2026-04-25 02:47 10.90263 122.88737 31673 ft 446 kts 153°
2026-04-25 02:47 10.87497 122.90190 31432 ft 450 kts 153°
2026-04-25 02:47 10.84709 122.91656 31190 ft 452 kts 153°
2026-04-25 02:47 10.81909 122.93127 30962 ft 454 kts 154°
2026-04-25 02:48 10.79104 122.94602 30735 ft 455 kts 153°
2026-04-25 02:48 10.76322 122.96063 30505 ft 457 kts 153°
2026-04-25 02:48 10.73495 122.97548 30277 ft 458 kts 153°
2026-04-25 02:48 10.70655 122.99038 30050 ft 460 kts 153°
2026-04-25 02:49 10.67804 123.00535 29783 ft 462 kts 154°
2026-04-25 02:49 10.64945 123.02036 29514 ft 463 kts 153°
2026-04-25 02:49 10.62086 123.03536 29251 ft 462 kts 154°
2026-04-25 02:49 10.59237 123.05030 28990 ft 460 kts 153°
2026-04-25 02:50 10.56410 123.06513 28653 ft 454 kts 153°
2026-04-25 02:50 10.53620 123.07976 28078 ft 447 kts 153°
2026-04-25 02:50 10.50906 123.09399 27454 ft 443 kts 153°
2026-04-25 02:50 10.48180 123.10828 26822 ft 439 kts 153°
2026-04-25 02:51 10.45477 123.12244 26197 ft 435 kts 153°
2026-04-25 02:51 10.42803 123.13645 25585 ft 431 kts 152°
2026-04-25 02:51 10.40148 123.15036 24969 ft 427 kts 152°
2026-04-25 02:51 10.37515 123.16415 24345 ft 425 kts 152°
2026-04-25 02:52 10.34895 123.17787 23715 ft 422 kts 152°
2026-04-25 02:52 10.32296 123.19147 23007 ft 419 kts 152°
2026-04-25 02:52 10.29724 123.20494 22371 ft 413 kts 152°
2026-04-25 02:52 10.27222 123.21804 21772 ft 407 kts 152°
2026-04-25 02:53 10.24718 123.23114 21145 ft 402 kts 152°
2026-04-25 02:53 10.22250 123.24406 20525 ft 397 kts 152°
2026-04-25 02:53 10.19805 123.25685 19918 ft 393 kts 152°
2026-04-25 02:53 10.17388 123.26949 19317 ft 389 kts 152°
2026-04-25 02:54 10.15000 123.28198 18719 ft 385 kts 152°
2026-04-25 02:54 10.12632 123.29436 18116 ft 381 kts 152°
2026-04-25 02:54 10.10295 123.30657 17476 ft 376 kts 152°
2026-04-25 02:54 10.07980 123.31867 16893 ft 371 kts 152°
2026-04-25 02:55 10.05728 123.33044 16329 ft 367 kts 152°
2026-04-25 02:55 10.03477 123.34220 15771 ft 362 kts 152°
2026-04-25 02:55 10.01245 123.35386 15209 ft 360 kts 152°
2026-04-25 02:55 9.99023 123.36546 14641 ft 358 kts 152°
2026-04-25 02:56 9.96824 123.37693 14076 ft 357 kts 152°
2026-04-25 02:56 9.94620 123.38844 13480 ft 355 kts 152°
2026-04-25 02:56 9.92429 123.39988 12905 ft 352 kts 151°
2026-04-25 02:56 9.90298 123.41101 12414 ft 346 kts 151°
2026-04-25 02:57 9.88171 123.42210 11886 ft 343 kts 151°
2026-04-25 02:57 9.86055 123.43314 11332 ft 341 kts 151°
2026-04-25 02:57 9.83962 123.44406 10944 ft 333 kts 150°
2026-04-25 02:57 9.81963 123.45447 10874 ft 313 kts 150°
2026-04-25 02:58 9.80074 123.46431 10780 ft 297 kts 150°
2026-04-25 02:58 9.78249 123.47384 10377 ft 296 kts 150°
2026-04-25 02:58 9.76421 123.48341 9927 ft 295 kts 150°
2026-04-25 02:58 9.74603 123.49290 9492 ft 292 kts 150°
2026-04-25 02:59 9.72808 123.50226 9102 ft 288 kts 149°
2026-04-25 02:59 9.71032 123.51152 8733 ft 284 kts 150°
2026-04-25 02:59 9.69333 123.52035 8562 ft 272 kts 149°
2026-04-25 02:59 9.67688 123.52890 8427 ft 260 kts 149°
2026-04-25 03:00 9.66115 123.53709 8291 ft 248 kts 149°
2026-04-25 03:00 9.64619 123.54488 8174 ft 237 kts 149°
2026-04-25 03:00 9.63183 123.55235 8066 ft 227 kts 149°
2026-04-25 03:00 9.61811 123.55950 7963 ft 217 kts 148°
2026-04-25 03:01 9.60490 123.56639 7801 ft 211 kts 148°
2026-04-25 03:01 9.59196 123.57315 7574 ft 209 kts 148°
2026-04-25 03:01 9.57926 123.57979 7331 ft 207 kts 148°
2026-04-25 03:01 9.56649 123.58645 7085 ft 207 kts 148°
2026-04-25 03:02 9.55370 123.59312 6842 ft 206 kts 148°
2026-04-25 03:02 9.54103 123.59972 6606 ft 205 kts 148°
2026-04-25 03:02 9.52835 123.60633 6375 ft 204 kts 148°
2026-04-25 03:02 9.51618 123.61264 6282 ft 189 kts 148°
2026-04-25 03:03 9.50469 123.61859 5998 ft 183 kts 147°
2026-04-25 03:03 9.49345 123.62446 5639 ft 183 kts 147°
2026-04-25 03:03 9.48212 123.63039 5284 ft 182 kts 148°
2026-04-25 03:03 9.47104 123.63617 4950 ft 181 kts 148°
2026-04-25 03:04 9.46035 123.64270 4613 ft 178 kts 139°
2026-04-25 03:04 9.45180 123.65158 4205 ft 176 kts 121°
2026-04-25 03:04 9.44660 123.66266 3806 ft 174 kts 103°
2026-04-25 03:05 9.44778 123.68624 3082 ft 168 kts 68°
2026-04-25 03:05 9.45353 123.69607 2854 ft 157 kts 51°
2026-04-25 03:05 9.46115 123.70316 2668 ft 141 kts 37°
2026-04-25 03:05 9.46909 123.70820 2410 ft 133 kts 32°
2026-04-25 03:06 9.47660 123.71263 2252 ft 119 kts 32°
2026-04-25 03:06 9.48369 123.71683 2016 ft 120 kts 31°
2026-04-25 03:06 9.49089 123.72110 1986 ft 120 kts 31°
2026-04-25 03:06 9.49805 123.72527 1833 ft 117 kts 30°
2026-04-25 03:07 9.50528 123.72916 1598 ft 118 kts 29°
2026-04-25 03:07 9.51255 123.73330 1230 ft 119 kts 36°
2026-04-25 03:07 9.51935 123.73798 1040 ft 116 kts 34°
2026-04-25 03:07 9.52631 123.74206 952 ft 117 kts 26°
2026-04-25 03:08 9.53328 123.74634 798 ft 116 kts 36°
2026-04-25 03:08 9.54018 123.75057 664 ft 118 kts 31°
2026-04-25 03:08 9.54736 123.75459 463 ft 120 kts 32°
2026-04-25 03:08 9.55433 123.75897 325 ft 118 kts 34°
2026-04-25 03:09 9.56133 123.76314 166 ft 115 kts 32°
2026-04-25 03:09 9.56815 123.76725 58 ft 107 kts 29°
2026-04-25 03:09 9.57308 123.77017 54 ft 56 kts 30°
2026-04-25 03:09 9.57597 123.77193 57 ft 53 kts 31°
2026-04-25 03:10 9.57921 123.77382 53 ft 52 kts 31°
2026-04-25 03:10 9.58215 123.77556 51 ft 40 kts 31°
2026-04-25 03:10 9.58345 123.77642 53 ft 8 kts 102°
2026-04-25 03:10 9.58303 123.77639 53 ft 8 kts 223°
2026-04-25 03:11 9.58255 123.77573 49 ft 10 kts 220°
2026-04-25 03:11 9.58189 123.77539 51 ft 15 kts 209°
2026-04-25 03:11 9.58078 123.77472 54 ft 22 kts 210°
2026-04-25 03:11 9.57923 123.77385 53 ft 29 kts 210°
2026-04-25 03:12 9.57737 123.77271 56 ft 34 kts 210°
2026-04-25 03:12 9.57520 123.77146 56 ft 36 kts 215°
2026-04-25 03:12 9.57360 123.77112 56 ft 22 kts 147°
2026-04-25 03:12 9.57288 123.77213 54 ft 16 kts 122°
2026-04-25 03:13 9.57207 123.77233 56 ft 13 kts 212°
2026-04-25 03:13 9.57128 123.77188 51 ft 14 kts 215°
2026-04-25 03:13 9.57064 123.77160 49 ft 5 kts 163°
2026-04-25 03:13 9.57033 123.77197 52 ft 9 kts 120°
2026-04-25 03:14 9.57015 123.77228 52 ft 0 kts 121°
2026-04-25 03:14 9.57011 123.77236 54 ft 2 kts 121°
2026-04-25 03:14 9.57008 123.77240 53 ft 0 kts 121°
2026-04-25 03:15 9.57015 123.77227 52 ft 0 kts 120°